#timestamp,LO_Frequency,Hit,StdDev 
1567756815.1,286047004.0,N
1567756835.9,286047006.0,Y
1567756855.7,286047001.6,P
1567756875.5,286047000.0,N
1567756895.4,286047000.7,N
1567756915.2,286047000.1,N
1567756935.1,286047004.2,Y
1567756936.0,286047004.2,P
1567756955.8,286047000.1,N
1567756975.6,286047000.0,N
1567756995.5,286047002.0,N
1567757015.3,286047000.9,N
1567757035.1,286047001.2,N
1567757055.9,286047002.3,N
1567757075.7,286047002.0,N
1567757095.6,286047001.6,N
1567757115.4,286047001.6,N
1567757135.2,286047003.6,Y
1567757155.1,286047002.4,P
1567757156.0,286047002.4,P
1567757175.8,286046999.9,N
1567757195.6,286047000.4,N
1567757215.5,286047000.1,N
1567757235.3,286047001.2,N
1567757255.2,286047000.7,N
1567757275.9,286046999.5,N
1567757295.7,286046999.4,N
1567757315.6,286046998.4,N
1567757335.4,286046998.6,N
1567757355.2,286046998.2,N
1567757375.1,286046998.3,N
1567757376.0,286046998.3,N
1567757395.8,286047000.2,N
1567757415.7,286047000.8,N
1567757435.5,286046998.3,N
1567757455.3,286046998.8,N
1567757475.2,286046998.6,N
1567757495.9,286046996.9,N
1567757515.7,286046996.3,N
1567757535.6,286046994.8,Y
1567757555.4,286046993.9,P
1567757575.3,286046993.6,N
1567757595.1,286046996.0,N
1567757596.0,286046996.0,N
1567757615.8,286046994.9,N
1567757635.7,286046998.0,N
1567757655.5,286046991.9,Y
1567757675.3,286046995.0,P
1567757695.2,286046997.7,P
1567757715.0,286046999.2,N
1567757715.9,286046999.2,N
1567757735.8,286047000.7,N
1567757755.6,286046999.7,N
1567757775.4,286047002.8,N
1567757795.3,286047000.1,N
1567757815.1,286047000.1,N
1567757835.8,286047000.7,N
1567757855.7,286047000.8,N
1567757875.5,286046999.3,N
1567757895.4,286047001.0,N
1567757915.2,286046998.7,N
1567757935.0,286046999.5,N
1567757935.9,286046999.5,N
1567757955.8,286047000.5,N
1567757975.6,286046999.9,N
1567757995.4,286046998.1,N
1567758015.3,286046999.3,N
1567758035.1,286046998.3,N
1567758055.9,286047000.8,N
1567758075.7,286046998.1,N
1567758095.5,286047004.3,N
1567758115.4,286047002.0,N
1567758135.2,286047000.2,N
1567758155.0,286047001.3,N
1567758155.9,286047001.3,N
1567758175.8,286047003.7,N
1567758195.6,286047005.2,N
1567758215.4,286047004.5,N
1567758235.3,286047005.5,N
1567758255.1,286047005.2,N
1567758275.9,286047004.1,N
1567758295.7,286047003.2,N
1567758315.5,286047003.7,N
1567758335.4,286047004.0,N
1567758355.2,286047006.0,N
1567758375.0,286047005.5,N
1567758376.0,286047005.5,N
1567758395.8,286047005.4,N
1567758415.6,286047007.6,N
1567758435.5,286047006.3,N
1567758455.3,286047010.6,Y
1567758475.1,286047009.4,P
1567758495.9,286047012.7,P
1567758515.7,286047016.5,P
1567758535.6,286047016.4,Y
1567758555.4,286047005.2,P
1567758575.2,286047005.1,N
1567758595.1,286047005.9,N
1567758596.0,286047005.9,N
1567758615.8,286047005.8,N
1567758635.7,286047006.3,Y
1567758655.5,286046998.1,P
1567758675.3,286046999.9,N
1567758695.2,286047000.9,N
1567758715.0,286047001.2,N
1567758715.9,286047001.2,N
1567758735.8,286046999.3,N
1567758755.6,286046997.3,N
1567758775.4,286046999.5,N
1567758795.3,286046993.4,N
1567758815.1,286046995.5,N
1567758835.8,286046999.5,N
1567758855.7,286046999.1,N
1567758875.5,286046998.2,N
1567758895.4,286046998.4,N
1567758915.2,286046996.5,N
1567758935.0,286046996.8,N
1567758935.9,286046996.8,N
1567758955.8,286046999.2,N
1567758975.6,286046997.8,N
1567758995.5,286046996.8,N
1567759015.3,286046997.2,N
1567759035.1,286046996.5,N
1567759055.9,286046997.1,N
1567759075.7,286046999.1,N
1567759095.5,286046997.7,N
1567759115.4,286046997.3,N
1567759135.2,286046997.9,N
1567759155.1,286046991.9,Y
1567759156.0,286046991.9,P
1567759175.8,286046993.5,N
1567759195.6,286046993.5,N
1567759215.5,286046994.2,N
1567759235.3,286046993.3,Y
1567759255.2,286047000.7,P
1567759275.9,286046999.1,N
1567759295.7,286046999.6,N
1567759315.6,286046999.9,N
1567759335.4,286047000.8,N
1567759355.2,286046998.4,N
1567759375.1,286046998.5,N
1567759376.0,286046998.5,N
1567759395.8,286046999.9,N
1567759415.7,286046998.6,N
1567759435.5,286047000.1,N
1567759455.3,286047002.5,N
1567759475.2,286047003.6,N
1567759495.0,286047002.4,N
1567759495.9,286047002.4,N
1567759515.7,286046999.9,N
1567759535.6,286047000.1,N
1567759555.4,286047002.7,N
1567759575.3,286047000.5,N
1567759595.1,286047000.3,N
1567759596.0,286047000.3,N
1567759615.8,286046999.5,N
1567759635.7,286046995.7,N
1567759655.5,286046993.5,Y
1567759675.4,286046997.0,P
1567759695.2,286046996.5,N
1567759715.0,286046999.2,N
1567759715.9,286046999.2,N
1567759735.8,286046998.8,N
1567759755.6,286047000.9,N
1567759775.4,286046999.3,N
1567759795.3,286046996.7,N
1567759815.1,286046999.4,N
1567759835.9,286047000.9,N
1567759855.7,286047000.9,N
1567759875.5,286046999.3,N
1567759895.4,286046996.5,N
1567759915.2,286046997.7,N
1567759935.0,286046997.1,N
1567759935.9,286046997.1,N
1567759955.8,286046998.6,N
1567759975.6,286047002.1,N
1567759995.4,286047000.1,N
1567760015.3,286046999.9,N
1567760035.1,286046998.6,N
1567760055.9,286046999.5,N
1567760075.7,286046997.3,N
1567760095.5,286046997.8,N
1567760115.4,286046997.3,N
1567760135.2,286046999.1,N
1567760155.0,286046999.6,N
1567760155.9,286046999.6,N
1567760175.8,286046997.5,N
1567760195.6,286046997.3,N
1567760215.5,286046994.5,Y
1567760235.3,286046996.5,P
1567760255.1,286046996.0,P
1567760275.9,286046997.1,N
1567760295.7,286046998.1,N
1567760315.5,286046998.6,N
1567760335.4,286046996.6,Y
1567760355.2,286046998.3,P
1567760375.1,286046996.5,P
1567760376.0,286046996.5,P
1567760395.8,286046996.7,Y
